CW3846 Weather Reports


Display with metric or nautical units.
time (UTC)temp
F
wind
direction
speed
MPH
gust
MPH
rain 1hr
in
rain 24hr
in
rain mn
in
humidity
%
barometer
mb
20260831235529 89 61 0.0 0.0 0.00 0.02 0.00 38 1012.1
20260831235033 89 0 0.0 0.0 0.00 0.02 0.00 38 1012.2
20260831234603 89 0 0.0 0.0 0.00 0.02 0.00 39 1012.3
20260831234032 89 0 0.0 1.0 0.00 0.02 0.00 39 1012.3
20260831233531 89 0 0.0 1.0 0.00 0.02 0.00 39 1012.4
20260831233056 89 0 0.0 2.0 0.00 0.02 0.00 40 1012.3
20260831232530 89 0 0.0 2.0 0.00 0.02 0.00 39 1012.3
20260831232031 89 0 0.0 1.0 0.00 0.02 0.00 39 1012.4
20260831231549 89 0 0.0 2.0 0.00 0.02 0.00 39 1012.5
20260831231034 89 60 0.0 2.0 0.00 0.02 0.00 40 1012.4
20260831230530 89 0 0.0 2.0 0.00 0.02 0.00 40 1012.6
20260831230056 89 0 0.0 2.0 0.00 0.02 0.00 40 1012.6
20260831225529 89 0 0.0 0.0 0.00 0.02 0.00 41 1012.4
20260831225031 89 0 0.0 0.0 0.00 0.02 0.00 41 1012.5
20260831224555 89 0 0.0 0.0 0.00 0.02 0.00 40 1012.5
20260831224033 89 0 0.0 0.0 0.00 0.02 0.00 41 1012.5
20260831223533 89 0 0.0 0.0 0.00 0.02 0.00 41 1012.6
20260831223058 89 0 0.0 0.0 0.00 0.02 0.00 39 1012.7
20260831222534 89 0 0.0 0.0 0.00 0.02 0.00 40 1012.8
20260831222051 89 0 0.0 0.0 0.00 0.02 0.00 40 1012.8
20260831221550 89 0 0.0 0.0 0.00 0.02 0.00 41 1012.9
20260831221030 89 0 0.0 0.0 0.00 0.02 0.00 40 1013.0
20260831220531 89 0 0.0 3.0 0.00 0.02 0.00 41 1013.1
20260831220049 89 0 0.0 3.0 0.00 0.02 0.00 42 1013.0
20260831215533 89 58 0.0 2.0 0.00 0.02 0.00 42 1013.3
20260831215029 89 0 0.0 1.0 0.00 0.02 0.00 43 1013.5
20260831214605 89 0 0.0 2.0 0.00 0.02 0.00 43 1013.5
20260831214031 89 0 0.0 2.0 0.00 0.02 0.00 43 1013.6
20260831213529 89 0 0.0 2.0 0.00 0.02 0.00 44 1013.7
20260831213100 89 0 0.0 2.0 0.00 0.02 0.00 44 1014.0
20260831212532 89 0 0.0 2.0 0.00 0.02 0.00 44 1014.1
20260831212034 89 0 0.0 2.0 0.00 0.02 0.00 44 1014.1
20260831211550 89 0 0.0 2.0 0.00 0.02 0.00 44 1014.2
20260831211029 89 0 0.0 1.0 0.00 0.02 0.00 44 1014.2
20260831210528 89 0 0.0 1.0 0.00 0.02 0.00 44 1014.4
20260831210057 89 0 0.0 0.0 0.00 0.02 0.00 43 1014.4
20260831205532 89 0 0.0 0.0 0.00 0.02 0.00 43 1014.5
20260831205031 89 0 0.0 0.0 0.00 0.02 0.00 42 1014.5
20260831204601 89 0 0.0 0.0 0.00 0.02 0.00 43 1014.6
20260831204032 89 0 0.0 0.0 0.00 0.02 0.00 42 1014.8
20260831203529 89 0 0.0 0.0 0.00 0.02 0.00 43 1014.9
20260831203101 90 0 0.0 0.0 0.00 0.02 0.00 41 1014.9
20260831202533 90 0 0.0 0.0 0.00 0.02 0.00 42 1015.0
20260831202031 90 0 0.0 0.0 0.00 0.02 0.00 41 1015.0
20260831201602 90 0 0.0 2.0 0.00 0.02 0.00 41 1015.1
20260831201029 90 0 0.0 2.0 0.00 0.02 0.00 41 1015.0
20260831200531 90 0 0.0 0.0 0.00 0.02 0.00 41 1015.1
20260831200046 90 0 0.0 0.0 0.00 0.02 0.00 40 1015.1
20260831195531 89 0 0.0 1.0 0.00 0.02 0.00 40 1015.0
20260831195031 89 0 0.0 1.0 0.00 0.02 0.00 40 1015.0
20260831194552 89 0 0.0 1.0 0.00 0.02 0.00 41 1015.0
20260831194032 89 0 0.0 1.0 0.00 0.02 0.00 42 1015.1
20260831193532 89 0 0.0 1.0 0.00 0.02 0.00 42 1015.1
20260831193123 88 0 0.0 0.0 0.00 0.02 0.00 43 1015.2
20260831192531 88 0 0.0 0.0 0.00 0.02 0.00 40 1015.3
20260831192031 88 0 0.0 1.0 0.00 0.02 0.00 43 1015.3
20260831191551 88 0 0.0 1.0 0.00 0.02 0.00 42 1015.4
20260831191031 87 0 0.0 1.0 0.00 0.02 0.00 42 1015.4
20260831190531 87 0 0.0 0.0 0.00 0.02 0.00 42 1015.4
20260831190049 87 0 0.0 1.0 0.00 0.02 0.00 42 1015.4
20260831185532 87 0 0.0 1.0 0.00 0.02 0.00 42 1015.5
20260831185028 86 0 0.0 0.0 0.00 0.02 0.00 43 1015.5
20260831184556 86 0 0.0 0.0 0.00 0.02 0.00 43 1015.5
20260831184031 86 0 0.0 0.0 0.00 0.02 0.00 43 1015.6
20260831183530 86 0 0.0 0.0 0.00 0.02 0.00 44 1015.6
20260831183059 86 0 0.0 0.0 0.00 0.02 0.00 43 1015.7
20260831182534 85 0 0.0 0.0 0.00 0.02 0.00 45 1015.8
20260831182032 85 0 0.0 0.0 0.00 0.02 0.00 47 1015.7
20260831181608 84 0 0.0 0.0 0.00 0.02 0.00 48 1015.7
20260831181031 84 0 0.0 0.0 0.00 0.02 0.00 49 1015.8
20260831180532 84 0 0.0 0.0 0.00 0.02 0.00 48 1015.9
20260831180104 84 0 0.0 1.0 0.00 0.02 0.00 49 1015.8
20260831175531 83 0 0.0 1.0 0.00 0.02 0.00 50 1015.8
20260831175029 83 0 0.0 0.0 0.00 0.02 0.00 50 1015.8
20260831174552 82 0 0.0 0.0 0.00 0.02 0.00 49 1015.9
20260831174031 82 0 0.0 0.0 0.00 0.02 0.00 49 1016.1
20260831173530 82 0 0.0 0.0 0.00 0.02 0.00 50 1016.0
20260831173100 82 0 0.0 0.0 0.00 0.02 0.00 50 1016.0
20260831172532 81 0 0.0 0.0 0.00 0.02 0.00 51 1016.1
20260831172030 81 0 0.0 0.0 0.00 0.02 0.00 51 1016.0
20260831171557 81 0 0.0 1.0 0.00 0.02 0.00 52 1016.0
20260831171028 81 0 0.0 3.0 0.00 0.02 0.00 52 1016.1
20260831170532 81 0 0.0 3.0 0.00 0.02 0.00 52 1016.1
20260831170111 80 0 0.0 1.0 0.00 0.02 0.00 56 1016.0
20260831165531 80 0 0.0 0.0 0.00 0.02 0.00 57 1015.9
20260831165029 80 0 0.0 0.0 0.00 0.02 0.00 57 1016.0
20260831164607 80 0 0.0 0.0 0.00 0.02 0.00 58 1016.0
20260831164030 80 0 0.0 0.0 0.00 0.02 0.00 59 1016.0
20260831163530 80 0 0.0 0.0 0.00 0.02 0.00 59 1016.0
20260831163048 81 0 0.0 1.0 0.00 0.02 0.00 58 1015.8
20260831162530 81 0 0.0 1.0 0.00 0.02 0.00 57 1015.5
20260831162030 81 0 0.0 1.0 0.00 0.02 0.00 56 1015.6
20260831161601 81 0 0.0 1.0 0.00 0.02 0.00 55 1015.6
20260831161028 82 0 0.0 1.0 0.00 0.02 0.00 54 1015.5
20260831160530 82 0 0.0 1.0 0.00 0.02 0.00 53 1015.3
20260831160105 82 0 0.0 1.0 0.00 0.02 0.00 52 1015.1
20260831155529 82 0 0.0 0.0 0.00 0.02 0.00 54 1015.1
20260831155032 82 0 0.0 0.0 0.00 0.02 0.00 55 1015.1
20260831154614 82 0 0.0 0.0 0.00 0.02 0.00 56 1014.9
20260831154031 82 0 0.0 0.0 0.00 0.02 0.00 58 1014.9
20260831153530 82 0 0.0 0.0 0.00 0.02 0.00 59 1014.8
20260831153052 82 0 0.0 0.0 0.00 0.02 0.00 60 1015.0
20260831152534 82 0 0.0 0.0 0.00 0.02 0.00 61 1015.0
20260831152030 82 0 0.0 0.0 0.00 0.02 0.00 61 1015.1
20260831151556 82 0 0.0 0.0 0.00 0.02 0.00 61 1015.1
20260831151034 81 0 0.0 0.0 0.00 0.02 0.00 60 1015.0
20260831150532 81 0 0.0 0.0 0.00 0.02 0.00 60 1015.0
20260831150053 81 0 0.0 0.0 0.00 0.02 0.00 58 1015.1
20260831145530 81 0 0.0 0.0 0.00 0.02 0.00 58 1014.9
20260831145031 81 0 0.0 0.0 0.00 0.02 0.00 58 1014.8
20260831144601 81 0 0.0 0.0 0.00 0.02 0.00 55 1014.7
20260831144030 81 0 0.0 0.0 0.00 0.02 0.00 57 1014.6
20260831143528 81 0 0.0 0.0 0.00 0.02 0.00 56 1014.6
20260831143049 81 0 0.0 0.0 0.00 0.02 0.00 57 1014.4
20260831142537 80 0 0.0 0.0 0.00 0.02 0.00 57 1014.4
20260831142030 80 0 0.0 0.0 0.00 0.02 0.00 59 1014.3
20260831141551 80 0 0.0 0.0 0.00 0.02 0.00 59 1014.3
20260831141028 80 0 0.0 0.0 0.00 0.02 0.00 59 1014.1
20260831140528 80 0 0.0 1.0 0.00 0.02 0.00 60 1014.1
20260831140046 80 0 0.0 1.0 0.00 0.02 0.00 61 1014.0
20260831135532 80 0 0.0 0.0 0.00 0.02 0.00 62 1013.8
20260831135031 80 0 0.0 0.0 0.00 0.02 0.00 62 1013.8
20260831134557 80 0 0.0 0.0 0.00 0.02 0.00 65 1013.8
20260831134030 80 0 0.0 0.0 0.00 0.02 0.00 63 1013.4
20260831133534 80 0 0.0 0.0 0.00 0.02 0.00 63 1013.4
20260831133045 80 0 0.0 0.0 0.00 0.02 0.00 64 1013.2
20260831132531 80 0 0.0 0.0 0.00 0.02 0.00 64 1013.1
20260831132031 80 0 0.0 0.0 0.00 0.02 0.00 65 1013.1
20260831131600 80 0 0.0 0.0 0.00 0.02 0.00 63 1013.1
20260831131032 80 0 0.0 0.0 0.00 0.02 0.00 63 1013.1
20260831130531 80 0 0.0 0.0 0.00 0.02 0.00 63 1013.0
20260831130056 80 0 0.0 0.0 0.00 0.02 0.00 63 1012.8
20260831125531 80 0 0.0 0.0 0.00 0.02 0.00 63 1012.8
20260831125032 80 0 0.0 0.0 0.00 0.02 0.00 64 1012.8
20260831124545 80 0 0.0 0.0 0.00 0.02 0.00 63 1012.8
20260831124030 80 0 0.0 0.0 0.00 0.02 0.00 64 1012.8
20260831123529 80 0 0.0 0.0 0.00 0.02 0.00 64 1012.7
20260831123046 80 0 0.0 0.0 0.00 0.02 0.00 65 1012.5
20260831122527 80 0 0.0 0.0 0.00 0.02 0.00 64 1012.5
20260831122030 80 0 0.0 0.0 0.00 0.02 0.00 64 1012.5
20260831121553 80 0 0.0 0.0 0.00 0.02 0.00 64 1012.5
20260831121031 80 0 0.0 0.0 0.00 0.02 0.00 63 1012.4
20260831120533 80 0 0.0 0.0 0.00 0.02 0.00 64 1012.4
20260831120052 80 0 0.0 0.0 0.00 0.02 0.00 64 1012.3
20260831115534 80 0 0.0 0.0 0.00 0.02 0.00 65 1012.4
20260831115030 80 0 0.0 0.0 0.00 0.02 0.00 65 1012.5
20260831114559 80 0 0.0 0.0 0.00 0.02 0.00 64 1012.5
20260831114032 80 0 0.0 0.0 0.00 0.02 0.00 63 1012.3
20260831113531 80 0 0.0 0.0 0.00 0.02 0.00 62 1012.1
20260831113059 80 0 0.0 0.0 0.00 0.02 0.00 62 1012.1
20260831112531 80 0 0.0 0.0 0.00 0.02 0.00 61 1012.1
20260831112031 80 0 0.0 0.0 0.00 0.02 0.00 60 1012.1
20260831111554 80 0 0.0 0.0 0.00 0.02 0.00 60 1012.0
20260831111031 80 0 0.0 0.0 0.00 0.02 0.00 60 1011.9
20260831110531 80 0 0.0 0.0 0.00 0.02 0.00 61 1011.8
20260831110052 80 0 0.0 0.0 0.00 0.02 0.00 61 1011.7
20260831105531 80 0 0.0 0.0 0.00 0.02 0.00 61 1011.4
20260831105032 80 0 0.0 0.0 0.00 0.02 0.00 61 1011.3
20260831104550 80 0 0.0 0.0 0.00 0.02 0.00 60 1011.2
20260831104030 80 0 0.0 0.0 0.00 0.02 0.00 61 1011.2
20260831103530 80 0 0.0 0.0 0.00 0.02 0.00 61 1011.1
20260831103045 80 0 0.0 0.0 0.00 0.02 0.00 61 1011.1
20260831102530 80 0 0.0 0.0 0.00 0.02 0.00 61 1011.1
20260831102031 80 0 0.0 0.0 0.00 0.02 0.00 59 1011.1
20260831101556 81 0 0.0 0.0 0.00 0.02 0.00 58 1011.1
20260831101031 81 0 0.0 0.0 0.00 0.02 0.00 57 1011.2
20260831100531 82 0 0.0 0.0 0.00 0.02 0.00 54 1011.4
20260831100106 83 0 0.0 0.0 0.00 0.02 0.00 51 1011.5
20260831095533 83 0 0.0 0.0 0.00 0.02 0.00 52 1011.5
20260831095033 83 0 0.0 0.0 0.00 0.02 0.00 49 1011.5
20260831094557 83 0 0.0 0.0 0.00 0.02 0.00 48 1011.4
20260831094056 83 0 0.0 0.0 0.00 0.02 0.00 47 1011.5
20260831093531 83 0 0.0 0.0 0.00 0.02 0.00 44 1011.7
20260831093100 83 0 0.0 0.0 0.00 0.02 0.00 45 1011.6
20260831092530 83 0 0.0 0.0 0.00 0.02 0.00 44 1011.8
20260831092030 83 0 0.0 0.0 0.00 0.02 0.00 45 1011.8
20260831091550 83 0 0.0 0.0 0.00 0.02 0.00 44 1011.8
20260831091032 83 0 0.0 0.0 0.00 0.02 0.00 46 1011.7
20260831090532 82 0 0.0 0.0 0.00 0.02 0.00 47 1011.7
20260831090057 82 0 0.0 0.0 0.00 0.02 0.00 48 1011.6
20260831085531 82 0 0.0 1.0 0.00 0.02 0.00 49 1011.5
20260831085031 82 0 0.0 1.0 0.00 0.02 0.00 50 1011.2
20260831084547 81 0 0.0 3.0 0.00 0.02 0.00 51 1010.9
20260831084030 81 0 0.0 3.0 0.00 0.02 0.00 52 1010.9
20260831083530 81 0 0.0 3.0 0.00 0.02 0.00 52 1010.8
20260831083107 81 0 0.0 3.0 0.00 0.02 0.00 53 1010.9
20260831082530 81 0 0.0 8.0 0.00 0.02 0.00 53 1011.0
20260831082030 81 0 0.0 8.0 0.00 0.02 0.00 53 1010.9
20260831081600 81 68 0.0 6.0 0.00 0.02 0.00 52 1011.0
20260831081030 81 0 0.0 6.0 0.00 0.02 0.00 54 1011.1
20260831080528 82 0 0.0 6.0 0.00 0.02 0.00 53 1010.9
20260831080123 82 0 0.0 5.0 0.00 0.02 0.00 52 1011.0
20260831075531 82 0 0.0 7.0 0.00 0.02 0.00 52 1011.1
20260831075031 82 0 0.0 7.0 0.00 0.02 0.00 52 1011.1
20260831074548 83 64 0.0 6.0 0.00 0.02 0.00 51 1011.2
20260831074034 83 59 0.0 4.0 0.00 0.02 0.00 49 1011.3
20260831073528 83 0 0.0 4.0 0.00 0.02 0.00 49 1011.5
20260831073056 84 0 0.0 3.0 0.00 0.02 0.00 49 1011.7
20260831072530 83 0 0.0 3.0 0.00 0.02 0.00 47 1011.6
20260831072028 83 0 0.0 3.0 0.00 0.02 0.00 48 1011.8
20260831071555 83 0 0.0 3.0 0.00 0.02 0.00 50 1011.7
20260831071030 83 0 0.0 3.0 0.00 0.02 0.00 50 1011.7
20260831070532 83 0 0.0 3.0 0.00 0.02 0.00 51 1011.7
20260831070050 83 84 0.0 2.0 0.00 0.02 0.00 53 1011.7
20260831065531 83 0 0.0 4.0 0.00 0.02 0.02 52 1011.6
20260831065031 83 0 0.0 4.0 0.00 0.02 0.02 52 1011.5
20260831064548 84 0 0.0 4.0 0.00 0.02 0.02 53 1011.6
20260831064031 84 0 0.0 4.0 0.00 0.02 0.02 52 1011.8
20260831063530 84 0 0.0 10.0 0.00 0.02 0.02 52 1011.7
20260831063109 84 120 0.0 10.0 0.00 0.02 0.02 52 1011.4
20260831062533 84 0 2.0 10.0 0.00 0.02 0.02 50 1011.3
20260831062032 85 0 1.0 20.0 0.00 0.02 0.02 49 1011.3
20260831061555 86 99 1.0 20.0 0.00 0.02 0.02 45 1011.5
20260831061031 87 111 1.0 9.0 0.00 0.02 0.02 40 1011.7
20260831060530 87 0 0.0 7.0 0.00 0.02 0.02 40 1011.5
20260831055532 87 126 2.0 9.0 0.00 0.02 0.02 40 1011.3
20260831055034 88 188 0.0 4.0 0.00 0.02 0.02 37 1010.9
20260831054559 88 0 0.0 1.0 0.02 0.02 0.02 32 1010.4
20260831054031 87 0 0.0 1.0 0.02 0.02 0.02 31 1010.4
20260831053531 86 0 0.0 2.0 0.02 0.02 0.02 35 1010.5
20260831053127 85 0 0.0 2.0 0.02 0.02 0.02 37 1010.5
20260831052532 83 0 0.0 3.0 0.02 0.02 0.02 40 1010.6
20260831052030 81 0 0.0 3.0 0.02 0.02 0.02 48 1010.9
20260831051553 79 0 0.0 3.0 0.02 0.02 0.02 56 1011.0
20260831051030 78 0 0.0 3.0 0.02 0.02 0.02 61 1011.2
20260831050531 77 0 0.0 3.0 0.02 0.02 0.02 65 1011.7
20260831050050 77 346 0.0 3.0 0.02 0.02 0.02 66 1011.8
20260831045539 78 301 0.0 3.0 0.02 0.02 0.02 66 1011.9
20260831045033 80 0 0.0 4.0 0.02 0.02 0.02 62 1011.8
20260831044641 82 0 0.0 4.0 0.00 0.00 0.00 58 1011.6
20260831044030 84 338 0.0 4.0 0.00 0.00 0.00 56 1011.4
20260831043531 86 310 0.0 4.0 0.00 0.00 0.00 52 1011.4
20260831043057 88 0 0.0 4.0 0.00 0.00 0.00 48 1011.7
20260831042532 89 0 0.0 4.0 0.00 0.00 0.00 43 1011.9
20260831042032 91 0 0.0 4.0 0.00 0.00 0.00 38 1011.6
20260831041603 92 0 0.0 4.0 0.00 0.00 0.00 38 1011.3
20260831041032 93 346 0.0 6.0 0.00 0.00 0.00 38 1010.9
20260831040531 95 323 0.0 6.0 0.00 0.00 0.00 34 1010.6
20260831040047 97 0 0.0 3.0 0.00 0.00 0.00 32 1010.3
20260831035529 98 317 0.0 3.0 0.00 0.00 0.00 28 1010.3
20260831035031 98 0 0.0 0.0 0.00 0.00 0.00 27 1010.0
20260831034600 99 0 0.0 2.0 0.00 0.00 0.00 27 1009.8
20260831034032 100 0 0.0 2.0 0.00 0.00 0.00 26 1009.4
20260831033532 100 0 0.0 1.0 0.00 0.00 0.00 24 1009.3
20260831033108 100 0 0.0 0.0 0.00 0.00 0.00 24 1008.9
20260831032536 100 0 0.0 0.0 0.00 0.00 0.00 24 1008.7
20260831032034 100 0 0.0 0.0 0.00 0.00 0.00 24 1008.7
20260831031553 101 0 0.0 0.0 0.00 0.00 0.00 24 1008.8
20260831031032 101 0 0.0 0.0 0.00 0.00 0.00 23 1008.9
20260831030531 101 0 0.0 0.0 0.00 0.00 0.00 23 1008.9
20260831030050 101 0 0.0 0.0 0.00 0.00 0.00 24 1008.7
20260831025532 101 0 0.0 0.0 0.00 0.00 0.00 23 1008.7
20260831025030 101 0 0.0 0.0 0.00 0.00 0.00 23 1008.6
20260831024557 101 0 0.0 0.0 0.00 0.00 0.00 23 1008.4
20260831024033 101 0 0.0 0.0 0.00 0.00 0.00 23 1008.4
20260831023530 101 0 0.0 0.0 0.00 0.00 0.00 22 1008.2
20260831023056 101 0 0.0 0.0 0.00 0.00 0.00 22 1008.2
20260831022532 102 0 0.0 0.0 0.00 0.00 0.00 21 1008.2
20260831022032 102 0 0.0 0.0 0.00 0.00 0.00 21 1008.2
20260831021552 102 0 0.0 0.0 0.00 0.00 0.00 21 1008.0
20260831021030 102 0 0.0 0.0 0.00 0.00 0.00 20 1007.9
20260831020532 102 0 0.0 0.0 0.00 0.00 0.00 21 1007.8
20260831020048 102 0 0.0 0.0 0.00 0.00 0.00 20 1007.8
20260831015531 102 0 0.0 0.0 0.00 0.00 0.00 20 1007.6
20260831015031 102 0 0.0 0.0 0.00 0.00 0.00 20 1007.6
20260831014558 102 0 0.0 0.0 0.00 0.00 0.00 20 1007.4
20260831014031 102 0 0.0 0.0 0.00 0.00 0.00 21 1007.5
20260831013532 103 0 0.0 0.0 0.00 0.00 0.00 20 1007.4
20260831013055 103 0 0.0 0.0 0.00 0.00 0.00 20 1007.4
20260831012531 103 0 0.0 1.0 0.00 0.00 0.00 21 1007.4
20260831012034 103 0 0.0 1.0 0.00 0.00 0.00 21 1007.4
20260831011556 103 0 0.0 1.0 0.00 0.00 0.00 21 1007.5
20260831011031 103 0 0.0 0.0 0.00 0.00 0.00 20 1007.5
20260831010532 104 0 0.0 0.0 0.00 0.00 0.00 20 1007.4
20260831010100 104 0 0.0 0.0 0.00 0.00 0.00 21 1007.6
20260831005532 104 0 0.0 0.0 0.00 0.00 0.00 21 1007.6
20260831005032 104 0 0.0 0.0 0.00 0.00 0.00 21 1007.6
20260831004546 104 0 0.0 0.0 0.00 0.00 0.00 21 1007.6
20260831004033 104 0 0.0 1.0 0.00 0.00 0.00 22 1007.6
20260831003531 104 0 0.0 1.0 0.00 0.00 0.00 22 1007.6
20260831003057 104 0 0.0 0.0 0.00 0.00 0.00 21 1007.6
20260831002530 104 0 0.0 0.0 0.00 0.00 0.00 21 1007.6
20260831002031 104 0 0.0 1.0 0.00 0.00 0.00 22 1007.7
20260831001555 104 0 0.0 1.0 0.00 0.00 0.00 22 1007.8
20260831001031 104 0 0.0 1.0 0.00 0.00 0.00 22 1007.8
20260831000529 104 0 0.0 3.0 0.00 0.00 0.00 21 1007.7
20260831000109 104 0 0.0 3.0 0.00 0.00 0.00 22 1007.7